Regional Weather Roundup
Issued by NWS

Home | Current Version | Previous Version | Text Only | Print | Product List | Glossary On
Versions: 1 2 3 4 5 6 7 8 9 10 11 12 13 14 15 16 17 18 19 20 21 22 23 24 25 26 27 28 29 30 31 32 33 34 35 36 37 38 39 40 41 42 43 44 45 46 47 48 49 50
000
ASUS43 KLMK 270702
RWRKY
KENTUCKY REGIONAL WEATHER ROUNDUP
NATIONAL WEATHER SERVICE LOUISVILLE KY
300 AM EDT MON APR 27 2015

NOTE "FAIR" INDICATES FEW OR NO CLOUDS BELOW 12,000 FEET
WITH NO SIGNIFICANT WEATHER AND/OR OBSTRUCTIONS TO VISIBILITY.

KYZ001>023-026-027-061>063-070>075-270800-
WESTERN AND SOUTH CENTRAL KENTUCKY

CITY           SKY/WX    TMP DP  RH WIND       PRES   REMARKS
PADUCAH        CLEAR     47  38  71 N9        29.97R
HENDERSON      CLEAR     48  36  61 N10       29.96F
OWENSBORO      CLEAR     49  37  63 NE6       29.96S
HOPKINSVILLE   NOT AVBL
BOWLING GREEN  CLEAR     48  37  65 N5        29.92F
GLASGOW        NOT AVBL
$$

KYZ024-025-028>034-038-045-046-053-270800-
NORTH CENTRAL KENTUCKY

CITY           SKY/WX    TMP DP  RH WIND       PRES   REMARKS
LOUISVILLE/SDF CLEAR     47  36  65 N9        29.93S
LOUISVILLE/LOU CLEAR     47  36  65 N5        29.94S
FORT KNOX      NOT AVBL
$$

KYZ035>037-039>044-047>052-055>060-089>105-270800-
NORTHEAST KENTUCKY

CITY           SKY/WX    TMP DP  RH WIND       PRES   REMARKS
LEXINGTON      CLEAR     43  34  70 N3        29.91S
COVINGTON      MOCLDY    41  34  76 NW3       29.91F
FRANKFORT      CLEAR     40  34  79 CALM      29.90F
$$

KYZ054-064>069-076>088-106>120-270800-
SOUTHEAST KENTUCKY

CITY           SKY/WX    TMP DP  RH WIND       PRES   REMARKS
JACKSON        MOCLDY    46  31  55 N5        29.88R
LONDON         CLEAR     43  35  73 N5        29.88S
SOMERSET       NOT AVBL
MIDDLESBORO    FOG       40  40 100 CALM      29.87S VSB 1/4
MONTICELLO     SUNNY     39  39 100 CALM      29.92F
$$




USA.gov is the U.S. government's official web portal to all federal, state and local government web resources and services.